Location: Acheville
(50.3840°N, 2.8827°E)
Time: 15:43:24
(UTC+00:00)

Cosmos 2278 Rocket - Pass Details

Date: 24 October 2021
Orbit: 841 x 845 km, 71.0° (Epoch: 28 November)

Event Time Altitude Azimuth Distance (km) Brightness Sun altitude
Rises 17:43:08 0° 331° (NNW) 3,418 5.7 -10.9°
Reaches altitude 10° 17:46:35 10° 352° (N) 2,479 4.7 -11.4°
Maximum altitude 17:50:06 16° 31° (NNE) 2,053 3.9 -12.0°
Enters shadow 17:52:28 13° 59° (ENE) 2,253 3.9 -12.4°
